Great Bend, NY

3:05 PM EST on February 08, 2016 (GMT -0500)
Wheeler-Sack Army Air Field

Weather History for KGTB - July, 2013

Change the Weather History Date:

Sunday, July 28, 2013

  Actual Average Record
Temperature  
Mean Temperature 66 °F -  
Max Temperature 74 °F 76 °F 86 °F (2015)
Min Temperature 60 °F 56 °F 48 °F (2005)
Cooling Degree Days 2    
Growing Degree Days 16 (Base 50)    
Moisture  
Dew Point 66 °F    
Average Humidity 94    
Maximum Humidity 100    
Minimum Humidity 75    
Precipitation  
Precipitation 0.33 in - - ()
Sea Level Pressure  
Sea Level Pressure 29.91 in    
Wind  
Wind Speed 9 mph (SW)    
Max Wind Speed 14 mph    
Max Gust Speed 20 mph    
Visibility 9 miles    
Events Rain    
Averages and records for this station are not official NWS values.
T = Trace of Precipitation, MM = Missing Value Source: NWS Daily Summary

Daily Weather History Graph

Daily Weather History Graph

Search for Another Location

Airport or City:

Trip Planner

Search our weather history database for the weather conditions in past years. The results will help you decide how hot, cold, wet, or windy it might be!

Date:

Astronomy

Jul. 28, 2013 Rise Set
Actual Time 5:46 AM EDT 8:31 PM EDT
Civil Twilight 5:13 AM EDT 9:04 PM EDT
Nautical Twilight 4:31 AM EDT 9:46 PM EDT
Astronomical Twilight 3:42 AM EDT 10:35 PM EDT
Moon 11:34 PM EDT (7/28) 12:43 PM EDT (7/28)
Length of Visible Light 15h 51m
Length of Day
14h 44m
Waning Gibbous, 61% of the Moon is Illuminated
Jul 28
Waning Gibbous
Jul 29
Last Quarter
Aug 6
New
Aug 14
First Quarter
Aug 20
Full

Hourly Weather History & Observations

Time (EDT) Temp. Dew Point Humidity Pressure Visibility Wind Dir Wind Speed Gust Speed Precip Events Conditions
12:58 AM 66.7 °F 66.7 °F 100% 29.87 in 10.0 mi SE 12.7 mph - 0.01 in Rain Light Rain
1:58 AM 66.9 °F 66.9 °F 100% 29.86 in 10.0 mi SSE 11.5 mph - 0.02 in   Light Drizzle
2:25 AM 66.2 °F 66.2 °F 100% 29.86 in 10.0 mi SSE 11.5 mph - N/A   Scattered Clouds
2:58 AM 66.9 °F 66.9 °F 100% 29.84 in 10.0 mi SSE 13.8 mph - 0.00 in   Mostly Cloudy
3:58 AM 67.1 °F 67.1 °F 100% 29.84 in 10.0 mi SSE 11.5 mph - N/A   Mostly Cloudy
4:58 AM 67.1 °F 67.1 °F 100% 29.85 in 10.0 mi SSE 12.7 mph - N/A   Overcast
5:43 AM 66.2 °F 66.2 °F 100% 29.88 in 10.0 mi SSE 10.4 mph - N/A   Overcast
5:53 AM 66.2 °F 66.2 °F 100% 29.88 in 10.0 mi SE 11.5 mph - N/A   Mostly Cloudy
5:58 AM 66.7 °F 66.7 °F 100% 29.87 in 10.0 mi SE 10.4 mph - N/A   Mostly Cloudy
6:58 AM 67.1 °F 67.1 °F 100% 29.86 in 10.0 mi SE 11.5 mph - N/A   Partly Cloudy
7:58 AM 68.7 °F 67.6 °F 96% 29.88 in 10.0 mi SE 9.2 mph - N/A   Mostly Cloudy
8:12 AM 68.0 °F 68.0 °F 100% 29.88 in 10.0 mi SSE 10.4 mph - N/A Rain Light Rain
8:21 AM 69.8 °F 68.0 °F 94% 29.89 in 10.0 mi SE 8.1 mph - N/A   Mostly Cloudy
8:51 AM 69.8 °F 68.0 °F 94% 29.89 in 10.0 mi SSE 6.9 mph - N/A   Mostly Cloudy
8:58 AM 70.0 °F 68.0 °F 93% 29.90 in 10.0 mi SSE 8.1 mph - 0.00 in   Mostly Cloudy
9:08 AM 69.8 °F 68.0 °F 94% 29.89 in 10.0 mi SE 9.2 mph - N/A   Overcast
9:18 AM 69.8 °F 68.0 °F 94% 29.89 in 10.0 mi SSE 6.9 mph - N/A   Mostly Cloudy
9:58 AM 71.6 °F 68.0 °F 88% 29.88 in 10.0 mi SE 6.9 mph - N/A   Mostly Cloudy
10:03 AM 71.6 °F 68.0 °F 88% 29.88 in 10.0 mi SSE 10.4 mph - N/A   Mostly Cloudy
10:08 AM 71.6 °F 68.0 °F 88% 29.88 in 10.0 mi SE 9.2 mph - N/A   Overcast
10:58 AM 73.4 °F 68.5 °F 85% 29.88 in 10.0 mi SSE 13.8 mph - N/A   Overcast
11:45 AM 71.6 °F 68.0 °F 88% 29.88 in 10.0 mi WSW 11.5 mph - N/A   Light Drizzle
11:54 AM 73.4 °F 68.0 °F 83% 29.88 in 10.0 mi SW 9.2 mph - N/A   Mostly Cloudy
11:58 AM 73.0 °F 68.0 °F 84% 29.88 in 10.0 mi SW 11.5 mph - 0.00 in   Mostly Cloudy
12:03 PM 73.4 °F 68.0 °F 83% 29.88 in 10.0 mi WSW 12.7 mph 19.6 mph N/A   Mostly Cloudy
12:48 PM 71.6 °F 68.0 °F 88% 29.90 in 10.0 mi WSW 6.9 mph - N/A   Mostly Cloudy
12:58 PM 71.8 °F 68.5 °F 89% 29.90 in 10.0 mi West 8.1 mph - N/A   Overcast
12:59 PM 71.6 °F 68.0 °F 88% 29.90 in 10.0 mi West 5.8 mph - N/A   Light Drizzle
1:14 PM 71.6 °F 69.8 °F 94% 29.90 in 7.0 mi WSW 8.1 mph - N/A Rain Rain
1:44 PM 69.8 °F 69.8 °F 100% 29.90 in 10.0 mi West 9.2 mph - N/A   Light Drizzle
1:58 PM 68.9 °F 68.0 °F 97% 29.90 in 10.0 mi West 6.9 mph - 0.03 in Rain Light Rain
2:18 PM 68.0 °F 68.0 °F 100% 29.91 in 10.0 mi Variable 5.8 mph - N/A Rain Light Rain
2:23 PM 68.0 °F 68.0 °F 100% 29.91 in 10.0 mi West 5.8 mph - N/A Rain Light Rain
2:33 PM 68.0 °F 68.0 °F 100% 29.91 in 10.0 mi Variable 4.6 mph - N/A Rain Light Rain
2:38 PM 66.2 °F 66.2 °F 100% 29.91 in 8.0 mi WNW 6.9 mph - N/A Rain Light Rain
2:48 PM 66.2 °F 66.2 °F 100% 29.91 in 6.0 mi WNW 5.8 mph - N/A Rain Rain
2:58 PM 66.7 °F 66.7 °F 100% 29.91 in 5.0 mi West 5.8 mph - 0.03 in Rain Light Rain
3:08 PM 68.0 °F 68.0 °F 100% 29.90 in 10.0 mi West 6.9 mph - N/A Rain Light Rain
3:14 PM 68.0 °F 68.0 °F 100% 29.91 in 10.0 mi West 8.1 mph - N/A   Overcast
3:44 PM 69.8 °F 68.0 °F 94% 29.91 in 10.0 mi West 4.6 mph - N/A   Overcast
3:56 PM 68.0 °F 66.2 °F 94% 29.91 in 10.0 mi West 11.5 mph 17.3 mph N/A   Light Drizzle
3:58 PM 68.0 °F 66.2 °F 94% 29.91 in 10.0 mi West 8.1 mph 17.3 mph 0.01 in   Light Drizzle
4:03 PM 68.0 °F 66.2 °F 94% 29.91 in 10.0 mi West 10.4 mph 17.3 mph N/A   Light Drizzle
4:06 PM 66.2 °F 66.2 °F 100% 29.90 in 10.0 mi West 6.9 mph 17.3 mph N/A   Overcast
4:26 PM 68.0 °F 64.4 °F 88% 29.90 in 10.0 mi WSW 4.6 mph - N/A   Mostly Cloudy
4:58 PM 68.4 °F 64.0 °F 86% 29.90 in 10.0 mi SW 4.6 mph - 0.00 in   Overcast
5:18 PM 69.8 °F 64.4 °F 83% 29.90 in 10.0 mi SW 5.8 mph - N/A   Mostly Cloudy
5:58 PM 70.5 °F 65.7 °F 85% 29.90 in 10.0 mi WSW 8.1 mph - N/A   Mostly Cloudy
6:03 PM 69.8 °F 66.2 °F 88% 29.91 in 10.0 mi Variable 5.8 mph - N/A   Scattered Clouds
6:58 PM 71.6 °F 63.1 °F 75% 29.92 in 10.0 mi West 5.8 mph - N/A   Partly Cloudy
7:58 PM 68.5 °F 62.2 °F 80% 29.93 in 10.0 mi WSW 3.5 mph - N/A   Clear
8:58 PM 66.6 °F 59.7 °F 79% 29.95 in 10.0 mi WSW 3.5 mph - N/A   Overcast
9:37 PM 66.2 °F 60.8 °F 83% 29.96 in 10.0 mi West 4.6 mph - N/A Rain Light Rain
9:57 PM 64.4 °F 60.8 °F 88% 29.97 in 6.0 mi West 6.9 mph - N/A Rain Rain
9:58 PM 64.4 °F 60.8 °F 88% 29.97 in 6.0 mi West 6.9 mph - 0.00 in Rain Rain
10:03 PM 64.4 °F 60.8 °F 88% 29.97 in 4.0 mi West 5.8 mph - N/A Rain Rain
10:13 PM 62.6 °F 62.6 °F 100% 29.97 in 7.0 mi West 3.5 mph - N/A Rain Light Rain
10:18 PM 62.6 °F 62.6 °F 100% 29.97 in 10.0 mi West 3.5 mph - N/A Rain Light Rain
10:33 PM 62.6 °F 62.6 °F 100% 29.97 in 10.0 mi West 2.3 mph - N/A   Mostly Cloudy
10:39 PM 62.6 °F 62.6 °F 100% 29.97 in 10.0 mi WNW 3.5 mph - N/A Rain Light Rain
10:58 PM 61.7 °F 61.5 °F 99% 29.96 in 10.0 mi NW 1.2 mph - 0.06 in   Light Drizzle
10:59 PM 60.8 °F 60.8 °F 100% 29.96 in 10.0 mi West 1.2 mph - N/A   Overcast
11:02 PM 62.6 °F 60.8 °F 94% 29.96 in 10.0 mi WNW 1.2 mph - N/A   Light Drizzle
11:12 PM 62.6 °F 62.6 °F 100% 29.98 in 9.0 mi SSW 8.1 mph - N/A Rain Light Rain
11:17 PM 60.8 °F 60.8 °F 100% 29.98 in 4.0 mi SSW 5.8 mph - N/A Rain Heavy Rain
11:37 PM 60.8 °F 60.8 °F 100% 29.98 in 6.0 mi SW 2.3 mph - N/A Rain Rain
11:52 PM 60.8 °F 60.8 °F 100% 29.98 in 10.0 mi South 3.5 mph - N/A Rain Light Rain
11:58 PM 60.1 °F 59.9 °F 99% 29.98 in 10.0 mi SSE 5.8 mph - 0.17 in Rain Light Rain